When you browse on this site, cookies collect data to enhance your experience and personalize the content and advertising you see.
Visit our Privacy Policy to learn more. By continuing to use the site, you agree to this use of cookies and data.
  • In Österreich
  • Länderverzeichnis
  • Für 7 Tage
  • Wassertemperatur
  • Wetterkarte
  • News
  • Widgets
  • user-avatar
    Anmelden

    Stündliche Wetter San Luis

    Heute, 15 Dezember, Sonntag

    Zeit Temperatur Niederschläge Wind Luftdruck Luftfeuchtigkeit
    00:00 +19°C° 0 mm 6 m/S 696 mmHg 62%
    01:00 +17°C° 0 mm 5 m/S 696 mmHg 68%
    02:00 +16°C° 0 mm 5 m/S 695 mmHg 65%
    03:00 +17°C° 0 mm 4 m/S 696 mmHg 71%
    04:00 +17°C° 0 mm 4 m/S 696 mmHg 78%
    05:00 +15°C° 0 mm 4 m/S 696 mmHg 84%
    06:00 +18°C° 0 mm 4 m/S 697 mmHg 70%
    07:00 +20°C° 0 mm 5 m/S 698 mmHg 56%
    08:00 +22°C° 0 mm 6 m/S 699 mmHg 41%
    09:00 +24°C° 0 mm 6 m/S 699 mmHg 37%
    10:00 +26°C° 0 mm 6 m/S 700 mmHg 33%
    11:00 +28°C° 0 mm 6 m/S 700 mmHg 28%
    12:00 +28°C° 0 mm 6 m/S 699 mmHg 26%
    13:00 +29°C° 0 mm 6 m/S 699 mmHg 23%
    14:00 +30°C° 0 mm 6 m/S 698 mmHg 21%
    15:00 +30°C° 0 mm 6 m/S 697 mmHg 19%
    16:00 +29°C° 0 mm 6 m/S 697 mmHg 18%
    17:00 +29°C° 0 mm 5 m/S 696 mmHg 16%
    18:00 +27°C° 0 mm 5 m/S 696 mmHg 18%
    19:00 +25°C° 0 mm 4 m/S 696 mmHg 20%
    20:00 +22°C° 0 mm 3 m/S 696 mmHg 22%
    21:00 +21°C° 0 mm 4 m/S 697 mmHg 23%
    22:00 +21°C° 0 mm 4 m/S 697 mmHg 24%
    23:00 +20°C° 0 mm 4 m/S 697 mmHg 25%

    Morgen, 16 Dezember, Montag

    Zeit Temperatur Niederschläge Wind Luftdruck Luftfeuchtigkeit
    00:00 +20°C° 0 mm 4 m/S 697 mmHg 25%
    01:00 +20°C° 0 mm 3 m/S 697 mmHg 24%
    02:00 +20°C° 0 mm 3 m/S 697 mmHg 24%
    03:00 +20°C° 0.1 mm 3 m/S 697 mmHg 26%
    04:00 +19°C° 0.1 mm 3 m/S 697 mmHg 28%
    05:00 +19°C° 0.1 mm 3 m/S 697 mmHg 31%
    06:00 +21°C° 0 mm 3 m/S 698 mmHg 28%
    07:00 +23°C° 0 mm 2 m/S 698 mmHg 25%
    08:00 +25°C° 0 mm 2 m/S 699 mmHg 22%
    09:00 +26°C° 0 mm 2 m/S 699 mmHg 20%
    10:00 +27°C° 0 mm 3 m/S 699 mmHg 18%
    11:00 +29°C° 0 mm 3 m/S 699 mmHg 16%
    12:00 +29°C° 0 mm 3 m/S 698 mmHg 15%
    13:00 +30°C° 0 mm 3 m/S 698 mmHg 14%
    14:00 +31°C° 0 mm 3 m/S 697 mmHg 13%
    15:00 +31°C° 0 mm 3 m/S 697 mmHg 13%
    16:00 +31°C° 0 mm 2 m/S 696 mmHg 12%
    17:00 +31°C° 0 mm 2 m/S 696 mmHg 12%
    18:00 +29°C° 0 mm 3 m/S 696 mmHg 19%
    19:00 +26°C° 0 mm 4 m/S 696 mmHg 26%
    20:00 +22°C° 0 mm 4 m/S 696 mmHg 33%
    21:00 +22°C° 0 mm 4 m/S 696 mmHg 38%
    22:00 +21°C° 0 mm 5 m/S 696 mmHg 42%
    23:00 +20°C° 0 mm 5 m/S 697 mmHg 47%

    übermorgen, 17 Dezember, Dienstag

    Zeit Temperatur Niederschläge Wind Luftdruck Luftfeuchtigkeit
    00:00 +20°C° 0 mm 5 m/S 696 mmHg 48%
    01:00 +19°C° 0 mm 5 m/S 696 mmHg 49%
    02:00 +19°C° 0 mm 5 m/S 696 mmHg 50%
    03:00 +19°C° 0 mm 5 m/S 696 mmHg 48%
    04:00 +19°C° 0 mm 4 m/S 696 mmHg 47%
    05:00 +19°C° 0 mm 4 m/S 696 mmHg 45%
    06:00 +21°C° 0 mm 5 m/S 696 mmHg 38%
    07:00 +25°C° 0 mm 5 m/S 697 mmHg 32%
    08:00 +28°C° 0 mm 6 m/S 697 mmHg 25%
    09:00 +29°C° 0 mm 6 m/S 697 mmHg 22%
    10:00 +32°C° 0 mm 6 m/S 697 mmHg 19%
    11:00 +33°C° 0 mm 6 m/S 697 mmHg 16%
    12:00 +34°C° 0 mm 6 m/S 697 mmHg 16%
    13:00 +34°C° 0 mm 7 m/S 696 mmHg 15%
    14:00 +35°C° 0 mm 7 m/S 695 mmHg 14%
    15:00 +35°C° 0 mm 7 m/S 695 mmHg 15%
    16:00 +35°C° 0 mm 7 m/S 694 mmHg 15%
    17:00 +35°C° 0 mm 6 m/S 694 mmHg 15%
    18:00 +32°C° 0 mm 6 m/S 694 mmHg 18%
    19:00 +29°C° 0 mm 5 m/S 694 mmHg 21%
    20:00 +27°C° 0 mm 4 m/S 694 mmHg 24%
    21:00 +26°C° 0 mm 4 m/S 694 mmHg 24%
    22:00 +25°C° 0 mm 5 m/S 694 mmHg 24%
    23:00 +24°C° 0 mm 6 m/S 694 mmHg 24%

    18 Dezember, Mittwoch

    Zeit Temperatur Niederschläge Wind Luftdruck Luftfeuchtigkeit
    00:00 +24°C° 0 mm 6 m/S 694 mmHg 24%
    01:00 +24°C° 0 mm 7 m/S 694 mmHg 25%
    02:00 +24°C° 0 mm 8 m/S 694 mmHg 25%
    03:00 +24°C° 0 mm 8 m/S 694 mmHg 25%
    04:00 +23°C° 0 mm 9 m/S 694 mmHg 25%
    05:00 +23°C° 0 mm 9 m/S 694 mmHg 25%
    06:00 +26°C° 0 mm 9 m/S 695 mmHg 24%
    07:00 +27°C° 0 mm 10 m/S 695 mmHg 24%
    08:00 +29°C° 0 mm 10 m/S 696 mmHg 24%
    09:00 +31°C° 0 mm 9 m/S 696 mmHg 22%
    10:00 +33°C° 0 mm 9 m/S 696 mmHg 21%
    11:00 +34°C° 0 mm 8 m/S 696 mmHg 20%
    12:00 +35°C° 0 mm 8 m/S 695 mmHg 19%
    13:00 +37°C° 0 mm 9 m/S 694 mmHg 19%
    14:00 +37°C° 0 mm 9 m/S 694 mmHg 19%
    15:00 +37°C° 0 mm 8 m/S 693 mmHg 19%
    16:00 +37°C° 0 mm 8 m/S 693 mmHg 20%
    17:00 +36°C° 0 mm 7 m/S 692 mmHg 20%
    18:00 +34°C° 0 mm 6 m/S 692 mmHg 25%
    19:00 +32°C° 0 mm 5 m/S 692 mmHg 30%
    20:00 +29°C° 0 mm 4 m/S 692 mmHg 34%
    21:00 +28°C° 0 mm 5 m/S 692 mmHg 35%
    22:00 +28°C° 0 mm 5 m/S 693 mmHg 36%
    23:00 +27°C° 0 mm 6 m/S 693 mmHg 38%

    19 Dezember, Donnerstag

    Zeit Temperatur Niederschläge Wind Luftdruck Luftfeuchtigkeit
    00:00 +27°C° 0 mm 6 m/S 693 mmHg 39%
    01:00 +27°C° 0 mm 6 m/S 693 mmHg 40%
    02:00 +26°C° 0 mm 5 m/S 693 mmHg 41%
    03:00 +26°C° 0 mm 5 m/S 693 mmHg 42%
    04:00 +25°C° 0 mm 5 m/S 693 mmHg 43%
    05:00 +25°C° 0 mm 5 m/S 693 mmHg 44%
    06:00 +26°C° 0 mm 5 m/S 694 mmHg 40%
    07:00 +28°C° 0 mm 4 m/S 695 mmHg 37%
    08:00 +29°C° 0 mm 4 m/S 695 mmHg 33%
    09:00 +32°C° 0 mm 4 m/S 695 mmHg 30%
    10:00 +34°C° 0 mm 4 m/S 695 mmHg 27%
    11:00 +35°C° 0 mm 4 m/S 695 mmHg 24%
    12:00 +36°C° 0 mm 3 m/S 695 mmHg 22%
    13:00 +37°C° 0 mm 3 m/S 694 mmHg 21%
    14:00 +38°C° 0 mm 3 m/S 693 mmHg 19%
    15:00 +38°C° 0 mm 3 m/S 693 mmHg 19%
    16:00 +38°C° 0 mm 3 m/S 692 mmHg 18%
    17:00 +39°C° 0 mm 3 m/S 692 mmHg 17%
    18:00 +36°C° 0.4 mm 3 m/S 692 mmHg 24%
    19:00 +33°C° 0.4 mm 4 m/S 692 mmHg 31%
    20:00 +29°C° 0.4 mm 4 m/S 692 mmHg 38%
    21:00 +27°C° 1.2 mm 6 m/S 693 mmHg 51%
    22:00 +23°C° 1.2 mm 7 m/S 694 mmHg 63%
    23:00 +21°C° 1.2 mm 9 m/S 695 mmHg 76%

    20 Dezember, Freitag

    Zeit Temperatur Niederschläge Wind Luftdruck Luftfeuchtigkeit
    00:00 +19°C° 1.7 mm 9 m/S 695 mmHg 77%
    01:00 +17°C° 1.7 mm 9 m/S 696 mmHg 79%
    02:00 +16°C° 1.7 mm 9 m/S 696 mmHg 81%
    03:00 +15°C° 1.1 mm 9 m/S 696 mmHg 81%
    04:00 +15°C° 1.1 mm 8 m/S 697 mmHg 80%
    05:00 +15°C° 1.1 mm 8 m/S 697 mmHg 80%
    06:00 +16°C° 0.2 mm 8 m/S 697 mmHg 73%
    07:00 +17°C° 0.2 mm 7 m/S 698 mmHg 67%
    08:00 +20°C° 0.2 mm 7 m/S 699 mmHg 60%
    09:00 +21°C° 0 mm 7 m/S 699 mmHg 51%
    10:00 +23°C° 0 mm 7 m/S 699 mmHg 42%
    11:00 +26°C° 0 mm 7 m/S 699 mmHg 33%
    12:00 +27°C° 0 mm 7 m/S 699 mmHg 31%
    13:00 +28°C° 0 mm 7 m/S 698 mmHg 29%
    14:00 +29°C° 0 mm 6 m/S 698 mmHg 27%
    15:00 +29°C° 0 mm 6 m/S 697 mmHg 26%
    16:00 +29°C° 0 mm 6 m/S 697 mmHg 25%
    17:00 +29°C° 0 mm 6 m/S 696 mmHg 25%
    18:00 +27°C° 0 mm 6 m/S 696 mmHg 27%
    19:00 +26°C° 0 mm 5 m/S 697 mmHg 29%
    20:00 +25°C° 0 mm 5 m/S 697 mmHg 31%
    21:00 +23°C° 0 mm 5 m/S 697 mmHg 32%
    22:00 +22°C° 0 mm 5 m/S 697 mmHg 33%
    23:00 +21°C° 0 mm 5 m/S 698 mmHg 34%
    Mehr zeigen